Multibeam Report for SKQ201609S


Ship Name: Sikuliaq
Chief Scientist: McGuire, Jeffrey
Woods Hole Oceanographic Institution
Source Organization: UNOLS R2R
Start Date: 2016-06-26
End Date: 2016-07-05


View ISO Metadata

Visit the full NCEI Bathymetry Viewer


Multibeam Bathymetry

Cruise Details

Project: Installation of a Real-Time Seafloor Geodetic and Thermal Observatory at the Cascadia Subduction Zone
Instrument: Kongsberg EM302 and EM710

Data Quality

Number of Files: 107
Number of Records: 156944
BATHYMETRY DATA Quantity Percentage
Number of Beams 66894784 100%
Number of Good Beams 60925288 91.08%
Number of Zero Beams 24 0.0%
Number of Flagged Beams 5969472 8.92%

Navigation Totals

Total Time: 175.0532 hours
Total Track Length: 1309.1767 km
Average Speed: 7.479 km/hr (4.0383 knots)

Cruise Bounds

Northern Extent: 48.764088
Southern Extent: 48.26048
Western Extent: -127.2631
Eastern Extent: -123.2046

Limits

Minimum Sonar Depth 2.493 Maximum Sonar Depth 7.9055
Minimum Altitude 20.1771 Maximum Altitude 3224.009
Minimum Depth 23.3058 Maximum Depth 3376.0984

File Information

Full Resolution Bathymetry as collected (raw): 105

Files File Size Description
0000_20160629_154403_Sikuliaq.all.mb58.gz 129.83MB Kongsberg multibeam vendor format
0001_20160629_174403_Sikuliaq.all.mb58.gz 115.98MB Kongsberg multibeam vendor format
0002_20160629_194403_Sikuliaq.all.mb58.gz 126.55MB Kongsberg multibeam vendor format
0003_20160629_214403_Sikuliaq.all.mb58.gz 132.51MB Kongsberg multibeam vendor format
0004_20160629_234404_Sikuliaq.all.mb58.gz 135.62MB Kongsberg multibeam vendor format
0005_20160630_014404_Sikuliaq.all.mb58.gz 129.69MB Kongsberg multibeam vendor format
0006_20160630_034404_Sikuliaq.all.mb58.gz 123.65MB Kongsberg multibeam vendor format
0007_20160630_054404_Sikuliaq.all.mb58.gz 111.27MB Kongsberg multibeam vendor format
0008_20160630_074404_Sikuliaq.all.mb58.gz 31.48MB Kongsberg multibeam vendor format
0009_20160630_084756_Sikuliaq.all.mb58.gz 79.45MB Kongsberg multibeam vendor format
0010_20160630_104759_Sikuliaq.all.mb58.gz 79.57MB Kongsberg multibeam vendor format
0011_20160630_124802_Sikuliaq.all.mb58.gz 79.41MB Kongsberg multibeam vendor format
0012_20160630_144757_Sikuliaq.all.mb58.gz 79.59MB Kongsberg multibeam vendor format
0013_20160630_164801_Sikuliaq.all.mb58.gz 49.19MB Kongsberg multibeam vendor format
0014_20160630_182440_Sikuliaq.all.mb58.gz 79.46MB Kongsberg multibeam vendor format
0015_20160630_202438_Sikuliaq.all.mb58.gz 79.27MB Kongsberg multibeam vendor format
0016_20160630_222436_Sikuliaq.all.mb58.gz 79.21MB Kongsberg multibeam vendor format
0017_20160701_002433_Sikuliaq.all.mb58.gz 79.22MB Kongsberg multibeam vendor format
0018_20160701_022435_Sikuliaq.all.mb58.gz 79.43MB Kongsberg multibeam vendor format
0019_20160701_042436_Sikuliaq.all.mb58.gz 79.66MB Kongsberg multibeam vendor format
0020_20160701_062437_Sikuliaq.all.mb58.gz 79.49MB Kongsberg multibeam vendor format
0021_20160701_082434_Sikuliaq.all.mb58.gz 80.29MB Kongsberg multibeam vendor format
0022_20160701_102437_Sikuliaq.all.mb58.gz 80.42MB Kongsberg multibeam vendor format
0023_20160701_122437_Sikuliaq.all.mb58.gz 80.15MB Kongsberg multibeam vendor format
0024_20160701_142438_Sikuliaq.all.mb58.gz 79.56MB Kongsberg multibeam vendor format
0025_20160701_162436_Sikuliaq.all.mb58.gz 14.11MB Kongsberg multibeam vendor format
0026_20160701_180905_Sikuliaq.all.mb58.gz 79.31MB Kongsberg multibeam vendor format
0027_20160701_200907_Sikuliaq.all.mb58.gz 79.35MB Kongsberg multibeam vendor format
0028_20160701_220910_Sikuliaq.all.mb58.gz 79.06MB Kongsberg multibeam vendor format
0029_20160702_000906_Sikuliaq.all.mb58.gz 79.56MB Kongsberg multibeam vendor format
0030_20160702_020906_Sikuliaq.all.mb58.gz 79.54MB Kongsberg multibeam vendor format
0031_20160702_040908_Sikuliaq.all.mb58.gz 79.62MB Kongsberg multibeam vendor format
0032_20160702_060910_Sikuliaq.all.mb58.gz 79.55MB Kongsberg multibeam vendor format
0033_20160702_080908_Sikuliaq.all.mb58.gz 79.58MB Kongsberg multibeam vendor format
0034_20160702_100907_Sikuliaq.all.mb58.gz 79.55MB Kongsberg multibeam vendor format
0035_20160702_120908_Sikuliaq.all.mb58.gz 79.58MB Kongsberg multibeam vendor format
0036_20160702_140907_Sikuliaq.all.mb58.gz 79.58MB Kongsberg multibeam vendor format
0037_20160702_160911_Sikuliaq.all.mb58.gz 79.46MB Kongsberg multibeam vendor format
0038_20160702_180906_Sikuliaq.all.mb58.gz 79.72MB Kongsberg multibeam vendor format
0039_20160702_200909_Sikuliaq.all.mb58.gz 100.45MB Kongsberg multibeam vendor format
0040_20160702_220907_Sikuliaq.all.mb58.gz 148.10MB Kongsberg multibeam vendor format
0041_20160703_000905_Sikuliaq.all.mb58.gz 109.40MB Kongsberg multibeam vendor format
0041_20160703_014936_Sikuliaq.all.mb58.gz 117.77MB Kongsberg multibeam vendor format
0042_20160703_034936_Sikuliaq.all.mb58.gz 122.53MB Kongsberg multibeam vendor format
0043_20160703_054937_Sikuliaq.all.mb58.gz 145.24MB Kongsberg multibeam vendor format
0044_20160703_074938_Sikuliaq.all.mb58.gz 137.14MB Kongsberg multibeam vendor format
0045_20160703_094939_Sikuliaq.all.mb58.gz 140.82MB Kongsberg multibeam vendor format
0046_20160703_114936_Sikuliaq.all.mb58.gz 134.46MB Kongsberg multibeam vendor format
0047_20160703_134940_Sikuliaq.all.mb58.gz 83.04MB Kongsberg multibeam vendor format
0048_20160703_154940_Sikuliaq.all.mb58.gz 79.43MB Kongsberg multibeam vendor format
0049_20160703_174941_Sikuliaq.all.mb58.gz 78.23MB Kongsberg multibeam vendor format
0050_20160703_194940_Sikuliaq.all.mb58.gz 78.30MB Kongsberg multibeam vendor format
0051_20160703_214938_Sikuliaq.all.mb58.gz 79.13MB Kongsberg multibeam vendor format
0052_20160703_234939_Sikuliaq.all.mb58.gz 79.22MB Kongsberg multibeam vendor format
0053_20160704_014938_Sikuliaq.all.mb58.gz 79.26MB Kongsberg multibeam vendor format
0054_20160704_034938_Sikuliaq.all.mb58.gz 26.43MB Kongsberg multibeam vendor format
0055_20160704_053541_Sikuliaq.all.mb58.gz 40.12MB Kongsberg multibeam vendor format
0056_20160704_074025_Sikuliaq.all.mb58.gz 64.64MB Kongsberg multibeam vendor format
0057_20160704_095407_Sikuliaq.all.mb58.gz 79.76MB Kongsberg multibeam vendor format
0058_20160704_115408_Sikuliaq.all.mb58.gz 79.23MB Kongsberg multibeam vendor format
0059_20160704_135409_Sikuliaq.all.mb58.gz 79.31MB Kongsberg multibeam vendor format
0060_20160704_155410_Sikuliaq.all.mb58.gz 79.04MB Kongsberg multibeam vendor format
0061_20160704_175406_Sikuliaq.all.mb58.gz 78.84MB Kongsberg multibeam vendor format
0062_20160704_195406_Sikuliaq.all.mb58.gz 78.76MB Kongsberg multibeam vendor format
0063_20160704_215410_Sikuliaq.all.mb58.gz 78.68MB Kongsberg multibeam vendor format
0064_20160704_235409_Sikuliaq.all.mb58.gz 79.09MB Kongsberg multibeam vendor format
0065_20160705_015406_Sikuliaq.all.mb58.gz 75.09MB Kongsberg multibeam vendor format
0066_20160705_035411_Sikuliaq.all.mb58.gz 73.26MB Kongsberg multibeam vendor format
0067_20160705_055406_Sikuliaq.all.mb58.gz 74.13MB Kongsberg multibeam vendor format
0068_20160705_075409_Sikuliaq.all.mb58.gz 73.82MB Kongsberg multibeam vendor format
0069_20160705_095409_Sikuliaq.all.mb58.gz 78.81MB Kongsberg multibeam vendor format
0070_20160705_115408_Sikuliaq.all.mb58.gz 79.00MB Kongsberg multibeam vendor format
0071_20160705_135406_Sikuliaq.all.mb58.gz 79.22MB Kongsberg multibeam vendor format
0072_20160705_155411_Sikuliaq.all.mb58.gz 79.28MB Kongsberg multibeam vendor format
0073_20160705_175406_Sikuliaq.all.mb58.gz 79.28MB Kongsberg multibeam vendor format
0074_20160705_195410_Sikuliaq.all.mb58.gz 81.76MB Kongsberg multibeam vendor format
0075_20160705_215408_Sikuliaq.all.mb58.gz 218.35MB Kongsberg multibeam vendor format
0076_20160705_235405_Sikuliaq.all.mb58.gz 7.76MB Kongsberg multibeam vendor format
0077_20160706_000219_Sikuliaq.all.mb58.gz 123.96MB Kongsberg multibeam vendor format
0078_20160706_020219_Sikuliaq.all.mb58.gz 32.76MB Kongsberg multibeam vendor format
0000_20160702_191325_Sikuliaq.all.mb58.gz 60.28MB Kongsberg multibeam vendor format
0001_20160702_204327_Sikuliaq.all.mb58.gz 65.21MB Kongsberg multibeam vendor format
0002_20160702_221325_Sikuliaq.all.mb58.gz 91.76MB Kongsberg multibeam vendor format
0003_20160702_234326_Sikuliaq.all.mb58.gz 91.41MB Kongsberg multibeam vendor format
0004_20160703_011325_Sikuliaq.all.mb58.gz 70.41MB Kongsberg multibeam vendor format
0005_20160703_024325_Sikuliaq.all.mb58.gz 80.54MB Kongsberg multibeam vendor format
0006_20160703_041326_Sikuliaq.all.mb58.gz 73.71MB Kongsberg multibeam vendor format
0007_20160703_054327_Sikuliaq.all.mb58.gz 115.09MB Kongsberg multibeam vendor format
0008_20160703_071326_Sikuliaq.all.mb58.gz 75.16MB Kongsberg multibeam vendor format
0009_20160703_084325_Sikuliaq.all.mb58.gz 87.76MB Kongsberg multibeam vendor format
0010_20160703_101326_Sikuliaq.all.mb58.gz 90.13MB Kongsberg multibeam vendor format
0011_20160703_114326_Sikuliaq.all.mb58.gz 122.38MB Kongsberg multibeam vendor format
0012_20160703_131325_Sikuliaq.all.mb58.gz 61.84MB Kongsberg multibeam vendor format
0013_20160703_144325_Sikuliaq.all.mb58.gz 58.82MB Kongsberg multibeam vendor format
0014_20160703_161325_Sikuliaq.all.mb58.gz 14.98MB Kongsberg multibeam vendor format
0015_20160704_031454_Sikuliaq.all.mb58.gz 11.21MB Kongsberg multibeam vendor format
0016_20160704_034710_Sikuliaq.all.mb58.gz 26.02MB Kongsberg multibeam vendor format
0017_20160704_053750_Sikuliaq.all.mb58.gz 36.57MB Kongsberg multibeam vendor format
0018_20160704_074210_Sikuliaq.all.mb58.gz 57.61MB Kongsberg multibeam vendor format
0019_20160704_091212_Sikuliaq.all.mb58.gz 3.03MB Kongsberg multibeam vendor format
0020_20160705_014709_Sikuliaq.all.mb58.gz 20.43MB Kongsberg multibeam vendor format
xbt.tar.gz 63.4KB Tar archive of unsupported MB data
em302_bag_info.tar.gz 7.5KB Tar archive of unsupported MB data
em710_bag_info.tar.gz 2.7KB Tar archive of unsupported MB data
xbt_bag_info.tar.gz 1.0KB Tar archive of unsupported MB data

Metadata Files: 1

Files File Size Description
SKQ201609S_Multibeam.xml NCEI created ISO metadata

Water Column Sonar Data

Water Column Sonar Data Available: WCSD Map Viewer